Location: Argonnex
(45.9500°N, 6.1333°E)
Time: 12:19:41
(UTC+00:00)

Cosmos 1844 Rocket - Visible Passes

Search period start: 28 September 2023 00:00
Search period end: 08 October 2023 00:00
Orbit: 825 x 843 km, 71.0° (Epoch: 27 September)

Date Brightness Start Highest point End Pass type
(mag) Time Alt. Az. Time Alt. Az. Time Alt. Az.
28 Sep 5.9 19:17:51 10° W 19:18:49 10° W 19:19:47 10° WSW visible
29 Sep 5.8 18:59:39 10° WNW 19:01:34 12° W 19:03:28 10° WSW visible
30 Sep 5.7 18:41:49 10° WNW 18:44:18 13° W 18:46:47 10° WSW visible
01 Oct 5.7 18:24:06 10° WNW 18:27:02 15° W 18:29:58 10° SW visible
02 Oct 5.7 18:06:28 10° WNW 18:09:47 16° W 18:13:04 10° SW visible
03 Oct 5.6 17:48:53 10° WNW 17:52:30 18° W 17:56:07 10° SW visible
05 Oct 6.1 04:58:47 10° ESE 05:01:01 12° E 05:03:15 10° ENE visible
06 Oct 6.2 04:42:14 10° ESE 04:43:46 11° E 04:45:17 10° E visible
